Location: Buffign�court
(47.8126°N, 6.0176°E)
Time: 02:45:18
(UTC+00:00)

Okean 1-7 Rocket - Pass Details

Date: 16 June 2021
Orbit: 616 x 649 km, 82.5° (Epoch: 04 August)

Event Time Altitude Azimuth Distance (km) Brightness Sun altitude
Exits shadow 23:06:13 40° 161° (SSE) 946 4.0 -18.5°
Maximum altitude 23:07:42 65° 96° (E) 701 3.7 -18.5°
Drops below altitude 10° 23:12:07 10° 15° (NNE) 2,018 7.2 -18.6°
Sets 23:14:22 0° 13° (NNE) 2,925 8.4 -18.6°
